Hourly Data Report for November 05, 2016

All times are specified in Local Standard Time (LST). Add 1 hour to adjust for Daylight Saving Time where and when it is observed.

KITCHENER/WATERLOO
ONTARIO

43°27'39.000" N
80°22'43.000" W
321.60 m
6144239
71368
YKF

Download Data

Hourly Data (November 2016)
Hourly Data Report for November 5, 2016
Temp Definition
°C
Dew Point Temp Definition
°C
Rel Hum Definition
%
Wind Dir Definition
10's deg

Wind Spd Definition
km/h
Visibility Definition
km
Stn Press Definition
kPa
Hmdx Definition


Wind Chill Definition


Weather Definition


TIME
00:00 Legend Double Dagger 6.4 3.2 80 25 18 16.1 98.50     LegendNANA
01:00 Legend Double Dagger 6.5 3.5 81 26 21 16.1 98.46     LegendNANA
02:00 Legend Double Dagger 6.8 4.4 85 26 18 16.1 98.45     LegendNANA
03:00 Legend Double Dagger 7.4 4.8 83 27 21 16.1 98.44     LegendNANA
04:00 Legend Double Dagger 6.8 5.0 88 27 11 16.1 98.44     LegendNANA
05:00 Legend Double Dagger 5.9 4.7 92 24 9 16.1 98.48     LegendNANA
06:00 Legend Double Dagger 4.9 4.2 95 23 8 16.1 98.49     LegendNANA
07:00 Legend Double Dagger 6.1 5.4 95 22 9 11.3 98.52     LegendNANA
08:00 Legend Double Dagger 6.9 6.2 95 23 8 9.7 98.58     Fog
09:00 Legend Double Dagger 9.1 7.6 90 27 17 14.5 98.62     LegendNANA
10:00 Legend Double Dagger 10.1 7.7 85 28 18 16.1 98.63     LegendNANA
11:00 Legend Double Dagger 10.6 7.9 83 29 18 16.1 98.61     LegendNANA
12:00 Legend Double Dagger 12.2 8.4 77 27 21 16.1 98.55     LegendNANA
13:00 Legend Double Dagger 12.9 8.3 74 28 21 16.1 98.50     LegendNANA
14:00 Legend Double Dagger 13.6 8.5 71 28 21 16.1 98.43     LegendNANA
15:00 Legend Double Dagger 14.1 8.3 68 27 18 16.1 98.38     LegendNANA
16:00 Legend Double Dagger 13.8 7.8 67 29 18 16.1 98.42     LegendNANA
17:00 Legend Double Dagger 11.8 7.7 76 27 11 16.1 98.42     LegendNANA
18:00 Legend Double Dagger 9.6 7.3 85 25 8 16.1 98.45     LegendNANA
19:00 Legend Double Dagger 8.5 6.8 89 29 11 16.1 98.50     LegendNANA
20:00 Legend Double Dagger 8.4 7.0 91 29 11 14.5 98.56     LegendNANA
21:00 Legend Double Dagger 7.9 6.6 91 30 9 14.5 98.58     LegendNANA
22:00 Legend Double Dagger 8.2 6.6 90 31 11 16.1 98.60     LegendNANA
23:00 Legend Double Dagger 5.8 4.9 94 31 8 9.7 98.66     Fog

Notes on Data Quality.

Legend

  • E = Estimated
  • M = Missing
  • NA = Not Available
  • ‡ = Partner data that is not subject to review by the National Climate Archives
Date modified: